Location: Landeleau
(48.2273°N, 3.7285°W)
Time: 13:11:02
(UTC+00:00)

SL-14 R/B - Pass Details

Date: 30 March 2020
Orbit: 517 x 556 km, 82.4° (Epoch: 27 May)

Event Time Altitude Azimuth Distance (km) Brightness Sun altitude
Rises 19:50:56 0° 348° (NNW) 2,751 7.4 -11.8°
Reaches altitude 10° 19:53:08 10° 345° (NNW) 1,849 6.5 -12.1°
Maximum altitude 19:57:10 68° 264° (W) 602 3.7 -12.8°
Drops below altitude 10° 20:01:10 10° 181° (S) 1,822 5.8 -13.4°
Sets 20:03:19 0° 179° (S) 2,705 6.6 -13.7°
